Terminal Aerodrome Forecast
Issued by NWS

Home | Current Version | Previous Version | Text Only | Print | Product List | Glossary On
Versions: 1 2 3 4 5 6 7 8 9 10 11 12 13 14 15
000
FTUS42 TJSJ 200000 AAA
TAFJSJ
TAF AMD
TJSJ 200049Z 2001/2024 10007KT P6SM VCTS SCT030CB SCT070
     FM200200 08006KT P6SM SCT030 SCT070
     FM201300 08012KT P6SM VCSH SCT025
     FM202200 08006KT P6SM VCSH SCT030 SCT070=

USA.gov is the U.S. government's official web portal to all federal, state and local government web resources and services.